User: anonymous   Login
Location: Maddington
(51.2000°N, 1.9167°W)
Time: 00:58:34
(UTC+00:00)
Language:

SPOT 1/Viking Rocket - Orbit

View from above orbital plane
View from above orbital plane
View from above satellite
View from above satellite

Ground track
Ground track

The orbit data is extracted from the following two-line orbital elements,

1 16615U 86019C   20336.46241414  .00000072  00000-0  42818-4 0  9999
2 16615  98.4584  37.7780 0010641 277.4547  93.2756 14.31817947820264
Epoch (UTC): 01 December 2020 11:05:52
Eccentricity: 0.0010641
inclination: 98.4584°
perigee height: 778 km
apogee height: 793 km
right ascension of ascending node: 37.7780°
argument of perigee: 277.4547°
revolutions per day: 14.31817947
mean anomaly at epoch: 93.2756°
orbit number at epoch: 82026

The dashed part of the orbit path shows where the satellite is in the earth's shadow,  

DLR